TimeEST,TemperatureF,Dew PointF,Humidity,Sea Level PressureIn,VisibilityMPH,Wind Direction,Wind SpeedMPH,Gust SpeedMPH,PrecipitationIn,Events,Conditions,WindDirDegrees,DateUTC
12:52 AM,37.0,36.0,96,29.95,10.0,NNE,3.5,-,N/A,,Clear,20,2013-12-23 05:52:00
1:20 AM,37.0,35.1,93,29.96,10.0,North,5.8,-,N/A,,Partly Cloudy,350,2013-12-23 06:20:00
1:52 AM,37.0,36.0,96,29.98,10.0,Calm,Calm,-,N/A,,Partly Cloudy,0,2013-12-23 06:52:00
2:29 AM,37.0,35.1,93,29.98,10.0,North,4.6,-,N/A,,Mostly Cloudy,10,2013-12-23 07:29:00
2:52 AM,37.0,36.0,96,30.00,10.0,Calm,Calm,-,N/A,,Overcast,0,2013-12-23 07:52:00
3:52 AM,36.0,34.0,93,30.02,10.0,NNE,4.6,-,N/A,,Overcast,30,2013-12-23 08:52:00
4:52 AM,35.1,33.1,92,30.02,10.0,NE,3.5,-,N/A,,Overcast,40,2013-12-23 09:52:00
5:52 AM,35.1,33.1,92,30.02,10.0,NNE,4.6,-,0.00,Rain,Light Rain,30,2013-12-23 10:52:00
6:52 AM,35.1,34.0,96,30.02,9.0,Calm,Calm,-,0.02,Rain,Light Rain,0,2013-12-23 11:52:00
7:52 AM,35.1,33.1,92,30.02,4.0,East,3.5,-,0.02,Rain,Light Rain,80,2013-12-23 12:52:00
8:21 AM,35.1,34.0,96,30.01,2.0,Calm,Calm,-,0.03,Rain,Rain,0,2013-12-23 13:21:00
8:30 AM,35.1,34.0,96,30.01,3.0,North,4.6,-,0.05,Rain,Rain,360,2013-12-23 13:30:00
8:43 AM,35.1,34.0,96,30.02,2.5,Calm,Calm,-,0.07,Rain,Rain,0,2013-12-23 13:43:00
8:52 AM,35.1,34.0,96,30.04,3.0,NE,3.5,-,0.09,Rain,Rain,50,2013-12-23 13:52:00
9:21 AM,35.1,33.1,92,30.02,5.0,North,6.9,-,0.03,Rain,Light Rain,360,2013-12-23 14:21:00
9:52 AM,35.1,34.0,96,30.04,5.0,NNE,6.9,-,0.07,Rain,Light Rain,20,2013-12-23 14:52:00
10:08 AM,36.0,34.0,93,30.02,5.0,East,5.8,-,0.02,Rain,Light Rain,80,2013-12-23 15:08:00
10:52 AM,36.0,34.0,93,30.00,7.0,ESE,10.4,-,0.06,Rain,Light Rain,120,2013-12-23 15:52:00
11:00 AM,36.0,35.1,97,29.97,6.0,ESE,12.7,-,0.01,Rain,Light Rain,120,2013-12-23 16:00:00
11:17 AM,36.0,35.1,97,30.00,7.0,NNW,6.9,-,0.02,Rain,Light Rain,340,2013-12-23 16:17:00
11:28 AM,36.0,35.1,97,30.02,9.0,NW,5.8,-,0.03,Rain,Light Rain,320,2013-12-23 16:28:00
11:50 AM,35.6,35.6,100,29.99,2.5,Calm,Calm,-,0.05,Rain,Light Rain,0,2013-12-23 16:50:00
11:52 AM,36.0,36.0,100,30.01,2.5,Calm,Calm,-,0.05,Rain,Light Rain,0,2013-12-23 16:52:00
11:58 AM,36.0,35.1,97,29.98,3.0,Calm,Calm,-,0.00,Rain,Light Rain,0,2013-12-23 16:58:00
12:27 PM,37.0,35.1,93,29.98,2.0,Calm,Calm,-,0.01,Rain,Light Rain,0,2013-12-23 17:27:00
12:35 PM,37.0,35.1,93,29.98,2.5,Calm,Calm,-,0.01,Rain,Light Rain,0,2013-12-23 17:35:00
12:43 PM,37.0,36.0,96,29.98,4.0,Calm,Calm,-,0.02,Rain,Light Rain,0,2013-12-23 17:43:00
12:52 PM,37.0,36.0,96,30.00,8.0,Calm,Calm,-,0.02,,Overcast,0,2013-12-23 17:52:00
12:58 PM,37.0,36.0,96,29.99,9.0,Calm,Calm,-,N/A,,Overcast,0,2013-12-23 17:58:00
1:38 PM,37.0,36.0,96,29.99,2.5,Calm,Calm,-,0.00,Rain,Light Rain,0,2013-12-23 18:38:00
1:52 PM,37.0,36.0,96,29.99,2.5,Calm,Calm,-,0.01,Rain,Light Rain,0,2013-12-23 18:52:00
2:00 PM,37.0,36.0,96,29.96,4.0,North,3.5,-,0.00,Rain,Light Rain,360,2013-12-23 19:00:00
2:52 PM,37.0,36.0,96,29.98,3.0,Calm,Calm,-,0.04,Rain,Light Rain,0,2013-12-23 19:52:00
3:52 PM,36.0,36.0,100,30.00,4.0,SSW,3.5,-,0.01,,Overcast,200,2013-12-23 20:52:00
4:10 PM,36.0,36.0,100,29.96,1.8,Calm,Calm,-,0.00,,Overcast,0,2013-12-23 21:10:00
4:21 PM,36.0,35.1,97,29.98,3.0,Calm,Calm,-,0.00,Rain,Light Rain,0,2013-12-23 21:21:00
4:26 PM,36.0,35.1,97,29.97,1.8,Calm,Calm,-,0.00,Rain,Light Rain,0,2013-12-23 21:26:00
4:32 PM,36.0,35.1,97,29.97,1.0,Calm,Calm,-,0.01,Rain,Light Rain,0,2013-12-23 21:32:00
4:37 PM,36.0,35.1,97,29.99,1.5,Calm,Calm,-,0.01,Rain,Light Rain,0,2013-12-23 21:37:00
4:43 PM,36.0,35.1,97,29.98,3.0,Calm,Calm,-,0.01,Rain,Light Rain,0,2013-12-23 21:43:00
4:52 PM,36.0,36.0,100,30.01,2.5,Calm,Calm,-,0.01,Rain,Light Rain,0,2013-12-23 21:52:00
5:06 PM,36.0,35.1,97,30.00,1.8,Calm,Calm,-,0.00,,Overcast,0,2013-12-23 22:06:00
5:13 PM,35.1,35.1,100,29.99,1.2,Calm,Calm,-,0.00,Rain,Light Rain,0,2013-12-23 22:13:00
5:18 PM,36.0,35.1,97,29.99,0.8,Calm,Calm,-,0.00,Rain,Light Rain,0,2013-12-23 22:18:00
5:22 PM,35.1,35.1,100,30.00,1.0,Calm,Calm,-,0.01,Rain,Light Rain,0,2013-12-23 22:22:00
5:35 PM,35.1,34.0,96,30.01,1.5,NW,3.5,-,0.01,,Overcast,320,2013-12-23 22:35:00
5:48 PM,35.6,35.6,100,30.00,1.2,Calm,Calm,-,0.01,Rain,Light Rain,0,2013-12-23 22:48:00
5:52 PM,36.0,35.1,97,30.03,1.2,NE,3.5,-,0.01,Rain,Light Rain,40,2013-12-23 22:52:00
5:59 PM,36.0,36.0,100,30.02,2.0,Calm,Calm,-,0.00,Rain,Light Rain,0,2013-12-23 22:59:00
6:17 PM,36.0,35.1,97,30.03,4.0,NNE,3.5,-,0.01,Rain,Light Rain,20,2013-12-23 23:17:00
6:31 PM,36.0,35.1,97,30.03,6.0,NNE,4.6,-,0.01,Rain,Light Rain,20,2013-12-23 23:31:00
6:52 PM,37.0,37.0,100,30.06,10.0,ENE,3.5,-,0.01,Rain,Light Rain,60,2013-12-23 23:52:00
7:04 PM,36.0,36.0,100,30.05,7.0,Calm,Calm,-,0.00,Rain,Light Rain,0,2013-12-24 00:04:00
7:14 PM,36.0,35.1,97,30.05,1.8,Calm,Calm,-,0.00,Rain,Light Rain,0,2013-12-24 00:14:00
7:22 PM,37.0,35.1,93,30.05,3.0,NW,3.5,-,0.01,Rain,Light Rain,310,2013-12-24 00:22:00
7:52 PM,39.9,37.0,89,30.08,10.0,NW,8.1,-,0.01,,Overcast,310,2013-12-24 00:52:00
8:09 PM,39.0,37.0,93,30.05,10.0,NW,5.8,-,0.00,,Overcast,310,2013-12-24 01:09:00
8:42 PM,39.0,36.0,89,30.08,10.0,West,8.1,-,0.00,,Overcast,280,2013-12-24 01:42:00
8:52 PM,39.0,35.1,86,30.10,10.0,West,9.2,-,0.00,,Overcast,280,2013-12-24 01:52:00
9:52 PM,37.9,33.1,83,30.10,10.0,WNW,9.2,-,N/A,,Overcast,290,2013-12-24 02:52:00
10:39 PM,37.0,30.0,76,30.09,10.0,WNW,11.5,21.9,N/A,,Overcast,290,2013-12-24 03:39:00
10:52 PM,36.0,30.0,79,30.11,10.0,WNW,12.7,-,N/A,,Overcast,290,2013-12-24 03:52:00
11:12 PM,36.0,30.0,79,30.10,10.0,NW,8.1,-,N/A,,Overcast,320,2013-12-24 04:12:00
11:28 PM,36.0,30.0,79,30.09,10.0,NW,10.4,-,N/A,,Overcast,320,2013-12-24 04:28:00
11:52 PM,35.1,30.0,82,30.12,10.0,WNW,4.6,-,N/A,,Scattered Clouds,300,2013-12-24 04:52:00